Time,TemperatureF,DewpointF,PressureIn,WindDirection,WindDirectionDegrees,WindSpeedMPH,WindSpeedGustMPH,Humidity,HourlyPrecipIn,Conditions,Clouds,dailyrainin,SoftwareType,DateUTC
2013-08-29 00:00:00,62.1,45.7,24.22,North,0,0.0,-999.0,55,0.00,,,0.00,,2013-08-29 07:00:00,
2013-08-29 01:00:00,61.6,45.7,24.22,North,0,0.0,-999.0,56,0.00,,,0.00,,2013-08-29 08:00:00,
2013-08-29 02:00:00,61.2,45.8,24.22,North,0,0.0,-999.0,57,0.00,,,0.00,,2013-08-29 09:00:00,
2013-08-29 03:00:00,60.8,44.1,24.22,North,0,0.0,-999.0,54,0.00,,,0.00,,2013-08-29 10:00:00,
2013-08-29 04:00:00,60.7,44.8,24.21,North,0,0.0,-999.0,56,0.00,,,0.00,,2013-08-29 11:00:00,
2013-08-29 05:00:00,60.5,43.8,24.21,North,0,0.0,-999.0,54,0.00,,,0.00,,2013-08-29 12:00:00,
2013-08-29 06:00:00,60.8,43.6,24.23,North,0,0.0,-999.0,53,0.00,,,0.00,,2013-08-29 13:00:00,
2013-08-29 07:05:00,61.9,44.1,24.23,North,0,0.0,-999.0,52,0.00,,,0.00,,2013-08-29 14:05:00,
2013-08-29 08:05:00,63.0,45.0,0.00,North,0,0.0,-999.0,52,0.00,,,0.00,,2013-08-29 15:05:00,
2013-08-29 09:05:00,68.0,47.6,0.00,North,0,0.0,-999.0,48,0.00,,,0.00,,2013-08-29 16:05:00,
2013-08-29 10:05:00,74.5,47.9,0.00,North,0,0.0,-999.0,39,0.00,,,0.00,,2013-08-29 17:05:00,
2013-08-29 11:05:00,78.1,48.1,0.00,North,0,0.0,-999.0,35,0.00,,,0.00,,2013-08-29 18:05:00,
2013-08-29 12:05:00,80.3,51.6,0.00,North,0,0.0,-999.0,37,0.00,,,0.00,,2013-08-29 19:05:00,
2013-08-29 13:05:00,81.7,49.7,0.00,North,0,0.0,-999.0,33,0.00,,,0.00,,2013-08-29 20:05:00,
2013-08-29 14:05:00,81.7,50.4,0.00,North,0,0.0,-999.0,34,0.00,,,0.00,,2013-08-29 21:05:00,
2013-08-29 15:05:00,81.2,50.0,0.00,North,0,0.0,-999.0,34,0.00,,,0.00,,2013-08-29 22:05:00,
2013-08-29 16:05:00,80.8,49.7,0.00,North,0,0.0,-999.0,34,0.00,,,0.00,,2013-08-29 23:05:00,
2013-08-29 17:05:00,78.8,51.0,0.00,North,0,0.0,-999.0,38,0.00,,,0.00,,2013-08-30 00:05:00,
2013-08-29 18:00:00,76.9,51.4,24.25,North,0,0.0,-999.0,41,0.00,,,0.00,,2013-08-30 01:00:00,
2013-08-29 19:00:00,73.8,52.2,24.24,North,0,0.0,-999.0,47,0.00,,,0.00,,2013-08-30 02:00:00,
2013-08-29 20:00:00,71.1,50.9,24.25,North,0,0.0,-999.0,49,0.00,,,0.00,,2013-08-30 03:00:00,
2013-08-29 21:00:00,69.7,49.1,24.27,North,0,0.0,-999.0,48,0.00,,,0.00,,2013-08-30 04:00:00,
2013-08-29 22:00:00,68.4,44.9,24.28,North,0,0.0,-999.0,43,0.00,,,0.00,,2013-08-30 05:00:00,
2013-08-29 23:00:00,68.2,47.8,24.28,North,0,0.0,-999.0,48,0.00,,,0.00,,2013-08-30 06:00:00,